952  
NZUS99 KTBW 172317  
RWRTPA  
FLORIDA REGIONAL WEATHER ROUNDUP  
NATIONAL WEATHER SERVICE TAMPA BAY RUSKIN FL  
700 PM EDT FRI AUG 17 2018  
 
NOTE: "FAIR" INDICATES FEW OR NO CLOUDS BELOW 12,000 FEET WITH NO  
SIGNIFICANT WEATHER AND/OR S TO VISIBILITY
.  
 
 
STATION/POSITION
 
 
 
FLZ042-048>051-055-056-060-061-180000-  
EXTRA STATIONS  
 
CITY SKY/WX TMP DP RH WIND PRES REMARKS
 
EVERGLADES CTY NOT AVBL  
CRYSTAL RIVER FAIR 81 73 78 CALM 30.13F  
SEBRING FAIR 92 64 38 SE5 30.13S HX 93  
 

 
FLZ001>010-012>015-180000-  
PANHANDLE FLORIDA  
 
CITY SKY/WX TMP DP RH WIND PRES REMARKS
 
PENSACOLA FAIR 82 73 74 SW6 30.10F  
PENSACOLA NAS PTSUNNY 82 74 76 SW6 30.10F  
MILTON NAS PTSUNNY 81 74 79 SW6 30.11  
CRESTVIEW FAIR 83 73 72 SW8 30.12S  
PANAMA CITY FAIR 82 74 76 SE5 30.11F  
APALACHICOLA FAIR 87 78 74 S8 30.12S HX 100  
 
STATION/POSITION
 
 
29.2N 88.2W  
28.8N 86.0W  
 

 
FLZ011-016>039-180000-  
NORTH FLORIDA  
 
CITY SKY/WX TMP DP RH WIND PRES REMARKS
 
MARIANNA FAIR 81 76 84 SW6 30.12S  
TALLAHASSEE PTSUNNY 82 76 81 CALM 30.13F  
PERRY FAIR 88 76 67 W9 30.13F HX 99  
CROSS CITY FAIR 78 74 88 SE3 30.15S  
GAINESVILLE LGT RAIN 77 72 84 N3 30.18R  
MAYPORT NAS FAIR 83 75 77 S10 30.14S HX 90  
JACKSONVILLE LGT RAIN 79 75 87 SW5 30.14F  
JAX NAS PTSUNNY 80 77 90 CALM 30.15F  
JAX CRAIG FAIR 81 77 88 S5 30.14F  
ST AUGUSTINE FAIR 81 73 76 S8 30.16F  
 
STATION/POSITION
 
 
KEATON BEACH  
31.4N 80.9W  
ST AUGUSTINE  
 

 
FLZ040-043>046-052-053-057-058-063-180000-  
CENTRAL FLORIDA  
 
CITY SKY/WX TMP DP RH WIND PRES REMARKS
 
OCALA FAIR 80 74 81 CALM 30.15F  
LEESBURG FAIR 87 75 67 E9 30.14S HX 96  
SANFORD FAIR 87 70 56 SE9 30.13S HX 92  
ORLANDO EXEC FAIR 87 72 60 SE9 30.14S HX 93  
ORLANDO INTL FAIR 88 71 57 SE10 30.14S HX 94  
KISSIMMEE FAIR 89 73 59 E8 30.14S HX 97  
WINTER HAVEN FAIR 90 70 51 SE10 30.14S HX 95  
LAKELAND MOSUNNY 91 66 43 SE6 30.13S HX 94  
BARTOW FAIR 90 70 51 E9 30.13S HX 95  
 

 
FLZ041-047-054-059-064-180000-  
EAST CENTRAL FLORIDA  
 
CITY SKY/WX TMP DP RH WIND PRES REMARKS
 
DAYTONA BEACH FAIR 84 72 67 SE3 30.14F  
TITUSVILLE MOSUNNY 90 72 55 SE9 30.16S HX 96  
MELBOURNE FAIR 87 73 62 E12 30.15R HX 94  
VERO BEACH FAIR 86 72 62 E10 30.14F HX 92  
FT PIERCE FAIR 86 75 69 E8 30.14S HX 95  
STUART MOSUNNY 88 75 66 E8 30.15F HX 97  
 
STATION/POSITION
 
 
28.9N 78.5W  
 

 
FLZ042-048>051-055-056-060-061-180000-  
WEST CENTRAL FLORIDA  
 
CITY SKY/WX TMP DP RH WIND PRES REMARKS
 
BROOKSVILLE FAIR 85 75 72 MISG 30.14S HX 93  
TAMPA PTSUNNY 91 75 59 N12 30.12S HX 101  
ST PETERSBURG FAIR 88 77 69 W9 30.11F HX 100  
ST PET-WHITTED FAIR 88 76 67 W9 30.10S HX 99  
SARASOTA FAIR 88 76 67 W8 30.11S HX 99  
 
STATION/POSITION
 
 
CEDAR KEY  
VENICE  
 

 
FLZ062-065-066-069-070-075>078-180000-  
SOUTHWEST FLORIDA AND KEYS  
 
CITY SKY/WX TMP DP RH WIND PRES REMARKS
 
PUNTA GORDA FAIR 88 73 61 SW8 30.13S HX 95  
FT MYERS LGT RAIN 79 75 87 SE7 30.11S  
SOUTHWEST INTL LGT RAIN 78 74 87 CALM 30.11F  
NAPLES PTSUNNY N/A N/A N/A S5 30.13F  
MARATHON FAIR 87 74 64 E9 30.09F HX 95  
KEY WEST NAS FAIR 85 75 72 E13 30.09F HX 93  
KEY WEST INTL MOSUNNY 88 73 62 E13 30.09F HX 96  
 
STATION/POSITION
 
 
VENICE  
26.0N 85.6W  
SAND KEY  
SOMBRERO KEY  
LONG KEY  
MOLASSES REEF  
 

 
FLZ067-068-071>074-180000-  
SOUTHEAST FLORIDA  
 
CITY SKY/WX TMP DP RH WIND PRES REMARKS
 
W PALM BEACH PTSUNNY 85 75 72 E12 30.13F HX 93  
FT LAUDER-EXEC FAIR 87 77 72 E10 30.11F HX 99  
FT LAUDERDALE FAIR 86 79 79 E13 30.10F HX 99  
PEMBROKE PINES FAIR 88 76 67 E13 30.12F HX 99  
OPA LOCKA FAIR 86 76 71 E10 30.12F HX 96  
MIAMI FAIR 86 75 69 E13 30.11F HX 95  
WEST KENDALL FAIR 87 74 64 E14 30.10F HX 95  
 
STATION/POSITION
 
 
LAKE WORTH  
FOWEY ROCKS  
SETTLEMENT POINT  
 

 
 
 
CLICK HERE TO GO TO PREVIOUS BULLETINS.

The Nexlab FL Page Main Text Page